Back to catalog

STARLINK-35770

AliveCommunicationsVLEO
NORAD 66977·PAYLOAD·🇺🇸 United States

Launched Dec 8, 2025 from Cape Canaveral Space Force Station

Loading…

Next Passes (next 24 hours)

TLE

FreshSource: CelesTrak SupGP

Epoch: Sep 14, 2026, 21:33 UTC

1 66977C 25288U   26257.89840278  .00049639  00000+0  17977-2 0  2578
2 66977  43.0043  35.1171 0001757 276.7015  22.6510 15.27557770    10

Track STARLINK-35770 in real time with AllMySat

Download on the App Store